Home > Weather > Yekaterinburg > Past weeks

Flag for Russia Past Weather in Yekaterinburg, Russia — Yesterday and Last 2 Weeks

Now
64 °F

Scattered clouds.


Feels Like: 64 °F
Forecast: 46 / 71 °F
Wind: 10 mph from Northwest

Location: Ekaterinburg

Current Time: Jun 25, 2016 at 1:45:07 PM

Latest Report: Jun 25, 2016 at 1:00 PM


Visibility: N/A

Pressure: 29.89 "Hg

Humidity: 56%

Dew Point: 48 °F

Location of YekaterinburgLocation

Past Weather in Yekaterinburg — Graph

°F

Yekaterinburg Temperature Yesterday

Maximum temperature yesterday: 77 °F (at 3:00 PM)
Minimum temperature yesterday: 63 °F (at 3:30 AM)
Average temperature yesterday: 69 °F

High & Low Weather Summary for the Past Weeks

 TemperatureHumidityPressure
High84 °F (Jun 22, 2:30 PM)100% (Jun 11, 2:30 AM)30.18 "Hg (Jun 11, 2:30 AM)
Low43 °F (Jun 15, 3:30 AM)27% (Jun 16, 5:30 PM)29.68 "Hg (Jun 13, 4:30 PM)
Average66 °F68%29.97 "Hg
* Reported Jun 10 12:00 PM — Jun 25 12:30 PM, Yekaterinburg, Weather by CustomWeather, © 2016

Note: Actual official high and low records may vary slightly from our data, if they occured in-between our weather recording intervals... More about our weather records

Advertising

Yekaterinburg Weather History for the Previous 24 Hours

Scroll right to see more
 ConditionsComfort  
Time TempWeatherWind HumidityBarometerVisibility
12:30 PM
Sat, Jun 25
66 °FScattered clouds.8 mph52%29.89 "HgN/A
12:00 PM66 °FPassing clouds.10 mph52%29.89 "HgN/A
11:30 AM64 °FScattered clouds.10 mph56%29.89 "HgN/A
11:00 AM68 °FScattered clouds.10 mph53%29.89 "HgN/A
10:30 AM68 °FScattered clouds.10 mph49%29.89 "HgN/A
10:00 AM66 °FScattered clouds.8 mph56%29.89 "HgN/A
9:30 AM66 °FPassing clouds.6 mph52%29.89 "HgN/A
9:00 AM64 °FPassing clouds.6 mph60%29.89 "HgN/A
8:30 AM63 °FSunny.3 mph68%29.89 "Hg10 mi
8:00 AM63 °FSunny.1 mph68%29.89 "Hg10 mi
7:30 AM61 °FPassing clouds.3 mph72%29.89 "HgN/A
7:00 AM59 °FPassing clouds.3 mph77%29.89 "HgN/A
6:30 AM57 °FPassing clouds.6 mph82%29.89 "HgN/A
6:00 AM57 °FPassing clouds.3 mph77%29.89 "HgN/A
5:30 AM55 °FSunny.1 mph82%29.89 "Hg10 mi
4:30 AM54 °FSunny.3 mph88%29.89 "Hg10 mi
4:00 AM52 °FClear.1 mph88%29.89 "Hg10 mi
3:30 AM50 °FClear.1 mph94%29.89 "Hg10 mi
3:00 AM55 °FClear.6 mph82%29.89 "Hg10 mi
2:30 AM57 °FClear.8 mph72%29.86 "Hg10 mi
2:00 AM52 °FClear.1 mph88%29.86 "Hg10 mi
1:30 AM59 °FPassing clouds.6 mph72%29.86 "HgN/A
1:00 AM59 °FClear.6 mph72%29.86 "Hg10 mi
12:30 AM61 °FClear.8 mph68%29.86 "Hg10 mi
12:00 AM61 °FPassing clouds.6 mph63%29.86 "HgN/A
11:30 PM
Fri, Jun 24
63 °FClear.3 mph59%29.86 "Hg10 mi
11:00 PM64 °FClear.6 mph60%29.86 "Hg10 mi
10:30 PM64 °FPassing clouds.6 mph60%29.83 "HgN/A
10:00 PM66 °FClear.8 mph56%29.83 "Hg10 mi
9:30 PM68 °FSunny.8 mph49%29.83 "Hg10 mi
9:00 PM70 °FPassing clouds.13 mph50%29.83 "HgN/A
8:30 PM72 °FScattered clouds.13 mph47%29.80 "HgN/A
8:00 PM73 °FScattered clouds.10 mph47%29.80 "HgN/A
7:30 PM73 °FScattered clouds.15 mph44%29.80 "HgN/A
7:00 PM75 °FScattered clouds.15 mph41%29.77 "HgN/A
6:30 PM75 °FScattered clouds.15 mph41%29.77 "HgN/A
6:00 PM77 °FScattered clouds.15 mph42%29.77 "HgN/A
5:30 PM77 °FScattered clouds.13 mph42%29.77 "HgN/A
5:00 PM75 °FScattered clouds.13 mph44%29.77 "HgN/A
4:30 PM75 °FPartly sunny.17 mph47%29.77 "HgN/A
4:00 PM77 °FPartly sunny.13 mph47%29.77 "HgN/A
3:30 PM73 °FPartly sunny.15 mph57%29.77 "HgN/A
3:00 PM77 °FPartly sunny.13 mph51%29.77 "HgN/A
2:30 PM75 °FPartly sunny.13 mph50%29.77 "HgN/A
2:00 PM75 °FPartly sunny.13 mph54%29.77 "HgN/A
1:30 PM73 °FPartly sunny.10 mph65%29.77 "HgN/A
1:00 PM70 °FPartly sunny.10 mph73%29.77 "HgN/A
Weather by CustomWeather, © 2016

See weather overviewHow to use our weather pages